When you browse on this site, cookies collect data to enhance your experience and personalize the content and advertising you see.
Visit our Privacy Policy to learn more. By continuing to use the site, you agree to this use of cookies and data.
  • en Suisse
  • Liste des pays
  • À 7 jours
  • Température de l'eau
  • Carte météo
  • Widgets météo
  • user-avatar
    Se connecter

    Météo par heure à Dalat

    Ce jour, 23 Août, Vendredi

    Heure Température Précipitation Vent Pression Humidité
    00:00 +19°C° 0.1 mm 1 m/s 651 mmHg 96%
    01:00 +19°C° 0 mm 1 m/s 651 mmHg 96%
    02:00 +19°C° 0 mm 1 m/s 651 mmHg 96%
    03:00 +19°C° 0 mm 1 m/s 650 mmHg 96%
    04:00 +19°C° 0 mm 1 m/s 650 mmHg 96%
    05:00 +20°C° 0 mm 1 m/s 651 mmHg 95%
    06:00 +20°C° 0 mm 1 m/s 651 mmHg 94%
    07:00 +21°C° 0 mm 1 m/s 652 mmHg 93%
    08:00 +23°C° 0 mm 1 m/s 653 mmHg 83%
    09:00 +25°C° 0 mm 1 m/s 653 mmHg 74%
    10:00 +26°C° 0 mm 2 m/s 654 mmHg 64%
    11:00 +27°C° 0.3 mm 2 m/s 653 mmHg 63%
    12:00 +27°C° 0.3 mm 2 m/s 653 mmHg 63%
    13:00 +28°C° 0 mm 2 m/s 653 mmHg 63%
    14:00 +27°C° 1.3 mm 1 m/s 652 mmHg 70%
    15:00 +26°C° 1.3 mm 1 m/s 652 mmHg 77%
    16:00 +25°C° 1.3 mm 1 m/s 651 mmHg 85%
    17:00 +23°C° 0.7 mm 1 m/s 651 mmHg 89%
    18:00 +22°C° 0.7 mm 1 m/s 651 mmHg 92%
    19:00 +21°C° 0.7 mm 1 m/s 650 mmHg 96%
    20:00 +20°C° 0.4 mm 1 m/s 651 mmHg 96%
    21:00 +20°C° 0.4 mm 1 m/s 651 mmHg 96%
    22:00 +20°C° 0.4 mm 1 m/s 652 mmHg 96%
    23:00 +20°C° 0.8 mm 1 m/s 651 mmHg 96%

    Demain, 24 Août, Samedi

    Heure Température Précipitation Vent Pression Humidité
    00:00 +20°C° 0.8 mm 1 m/s 651 mmHg 96%
    01:00 +20°C° 0.8 mm 1 m/s 651 mmHg 96%
    02:00 +20°C° 0.3 mm 1 m/s 651 mmHg 96%
    03:00 +20°C° 0.3 mm 1 m/s 650 mmHg 96%
    04:00 +19°C° 0.3 mm 1 m/s 650 mmHg 96%
    05:00 +20°C° 1.1 mm 1 m/s 650 mmHg 96%
    06:00 +20°C° 1.1 mm 1 m/s 651 mmHg 96%
    07:00 +20°C° 1.1 mm 1 m/s 651 mmHg 96%
    08:00 +21°C° 0.5 mm 1 m/s 651 mmHg 95%
    09:00 +21°C° 0.5 mm 1 m/s 651 mmHg 94%
    10:00 +19°C° 0.5 mm 0 m/s 652 mmHg 93%
    11:00 +23°C° 0.1 mm 1 m/s 652 mmHg 88%
    12:00 +24°C° 0.1 mm 1 m/s 651 mmHg 82%
    13:00 +25°C° 0.1 mm 1 m/s 651 mmHg 76%
    14:00 +25°C° 1.4 mm 1 m/s 651 mmHg 81%
    15:00 +24°C° 1.4 mm 1 m/s 650 mmHg 85%
    16:00 +24°C° 1.4 mm 1 m/s 649 mmHg 90%
    17:00 +23°C° 0.8 mm 1 m/s 650 mmHg 92%
    18:00 +21°C° 0.8 mm 1 m/s 650 mmHg 94%
    19:00 +20°C° 0.8 mm 1 m/s 650 mmHg 97%
    20:00 +20°C° 0.1 mm 1 m/s 650 mmHg 97%
    21:00 +20°C° 0.1 mm 1 m/s 650 mmHg 97%
    22:00 +20°C° 0.1 mm 1 m/s 651 mmHg 97%
    23:00 +19°C° 0.1 mm 1 m/s 651 mmHg 97%

    Après-demain, 25 Août, Dimanche

    Heure Température Précipitation Vent Pression Humidité
    00:00 +19°C° 0.1 mm 1 m/s 650 mmHg 97%
    01:00 +19°C° 0.1 mm 1 m/s 650 mmHg 97%
    02:00 +19°C° 0 mm 1 m/s 650 mmHg 97%
    03:00 +19°C° 0 mm 1 m/s 649 mmHg 97%
    04:00 +19°C° 0 mm 1 m/s 649 mmHg 97%
    05:00 +19°C° 0 mm 1 m/s 650 mmHg 96%
    06:00 +20°C° 0 mm 1 m/s 650 mmHg 94%
    07:00 +20°C° 0 mm 1 m/s 651 mmHg 93%
    08:00 +22°C° 0 mm 1 m/s 651 mmHg 84%
    09:00 +24°C° 0 mm 2 m/s 652 mmHg 74%
    10:00 +26°C° 0 mm 2 m/s 653 mmHg 65%
    11:00 +26°C° 0.2 mm 2 m/s 652 mmHg 65%
    12:00 +27°C° 0.2 mm 2 m/s 652 mmHg 64%
    13:00 +27°C° 0.2 mm 2 m/s 652 mmHg 64%
    14:00 +27°C° 0.8 mm 1 m/s 651 mmHg 70%
    15:00 +26°C° 0.8 mm 1 m/s 650 mmHg 76%
    16:00 +25°C° 0.8 mm 1 m/s 650 mmHg 82%
    17:00 +23°C° 0.3 mm 1 m/s 650 mmHg 87%
    18:00 +22°C° 0.3 mm 1 m/s 650 mmHg 91%
    19:00 +21°C° 0.3 mm 1 m/s 650 mmHg 96%
    20:00 +20°C° 0 mm 1 m/s 650 mmHg 96%
    21:00 +20°C° 0 mm 1 m/s 651 mmHg 96%
    22:00 +19°C° 0 mm 1 m/s 651 mmHg 96%
    23:00 +19°C° 0 mm 1 m/s 651 mmHg 96%

    26 Août, Lundi

    Heure Température Précipitation Vent Pression Humidité
    00:00 +19°C° 0 mm 1 m/s 650 mmHg 96%
    01:00 +19°C° 0 mm 1 m/s 650 mmHg 96%
    02:00 +19°C° 0 mm 1 m/s 650 mmHg 96%
    03:00 +19°C° 0 mm 1 m/s 650 mmHg 96%
    04:00 +19°C° 0 mm 1 m/s 650 mmHg 96%
    05:00 +20°C° 0 mm 1 m/s 650 mmHg 95%
    06:00 +20°C° 0 mm 1 m/s 650 mmHg 94%
    07:00 +21°C° 0 mm 1 m/s 651 mmHg 92%
    08:00 +21°C° 0 mm 2 m/s 651 mmHg 86%
    09:00 +24°C° 0 mm 2 m/s 652 mmHg 79%
    10:00 +25°C° 0 mm 2 m/s 652 mmHg 73%
    11:00 +26°C° 0.1 mm 2 m/s 652 mmHg 72%
    12:00 +26°C° 0.1 mm 2 m/s 651 mmHg 71%
    13:00 +27°C° 0.1 mm 2 m/s 651 mmHg 70%
    14:00 +26°C° 1.1 mm 2 m/s 650 mmHg 76%
    15:00 +25°C° 1.1 mm 1 m/s 650 mmHg 82%
    16:00 +24°C° 1.1 mm 1 m/s 649 mmHg 88%
    17:00 +23°C° 0.7 mm 1 m/s 649 mmHg 91%
    18:00 +22°C° 0.7 mm 1 m/s 650 mmHg 94%
    19:00 +21°C° 0.7 mm 1 m/s 650 mmHg 96%
    20:00 +20°C° 0.1 mm 1 m/s 650 mmHg 96%
    21:00 +20°C° 0.1 mm 1 m/s 651 mmHg 97%
    22:00 +20°C° 0.1 mm 1 m/s 651 mmHg 97%
    23:00 +20°C° 0 mm 1 m/s 651 mmHg 97%

    27 Août, Mardi

    Heure Température Précipitation Vent Pression Humidité
    00:00 +20°C° 0 mm 1 m/s 650 mmHg 97%
    01:00 +20°C° 0 mm 1 m/s 650 mmHg 97%
    02:00 +20°C° 0.5 mm 1 m/s 650 mmHg 97%
    03:00 +20°C° 0.5 mm 1 m/s 650 mmHg 97%
    04:00 +20°C° 0.5 mm 1 m/s 650 mmHg 97%
    05:00 +20°C° 0.2 mm 1 m/s 650 mmHg 96%
    06:00 +20°C° 0.2 mm 1 m/s 650 mmHg 95%
    07:00 +20°C° 0.2 mm 1 m/s 651 mmHg 93%
    08:00 +23°C° 0.1 mm 1 m/s 651 mmHg 83%
    09:00 +25°C° 0.1 mm 2 m/s 652 mmHg 72%
    10:00 +27°C° 0.1 mm 2 m/s 653 mmHg 62%
    11:00 +27°C° 0.6 mm 2 m/s 652 mmHg 64%
    12:00 +27°C° 0.6 mm 2 m/s 652 mmHg 67%
    13:00 +27°C° 0.6 mm 1 m/s 651 mmHg 69%
    14:00 +27°C° 1.3 mm 1 m/s 651 mmHg 73%
    15:00 +26°C° 1.3 mm 1 m/s 650 mmHg 77%
    16:00 +23°C° 1.3 mm 0 m/s 650 mmHg 81%
    17:00 +22°C° 1.2 mm 0 m/s 650 mmHg 86%
    18:00 +20°C° 1.2 mm 0 m/s 650 mmHg 91%
    19:00 +19°C° 1.2 mm 0 m/s 649 mmHg 96%
    20:00 +19°C° 1 mm 0 m/s 650 mmHg 96%
    21:00 +18°C° 1 mm 0 m/s 650 mmHg 96%
    22:00 +18°C° 1 mm 0 m/s 651 mmHg 96%
    23:00 +18°C° 0.2 mm 0 m/s 651 mmHg 96%

    28 Août, Mercredi

    Heure Température Précipitation Vent Pression Humidité
    00:00 +20°C° 0.2 mm 1 m/s 650 mmHg 97%
    01:00 +19°C° 0.2 mm 1 m/s 650 mmHg 97%
    02:00 +20°C° 0 mm 1 m/s 650 mmHg 97%
    03:00 +20°C° 0 mm 1 m/s 650 mmHg 97%
    04:00 +20°C° 0 mm 1 m/s 650 mmHg 97%
    05:00 +20°C° 0 mm 1 m/s 650 mmHg 96%
    06:00 +21°C° 0 mm 1 m/s 650 mmHg 95%
    07:00 +21°C° 0 mm 1 m/s 651 mmHg 94%
    08:00 +23°C° 0 mm 1 m/s 651 mmHg 84%
    09:00 +25°C° 0 mm 1 m/s 652 mmHg 74%
    10:00 +27°C° 0 mm 1 m/s 653 mmHg 64%
    11:00 +27°C° 1 mm 1 m/s 652 mmHg 69%
    12:00 +27°C° 1 mm 1 m/s 651 mmHg 73%
    13:00 +26°C° 1 mm 1 m/s 650 mmHg 78%
    14:00 +25°C° 1.8 mm 1 m/s 650 mmHg 83%
    15:00 +23°C° 1.8 mm 0 m/s 649 mmHg 88%
    16:00 +22°C° 1.8 mm 0 m/s 649 mmHg 93%
    17:00 +21°C° 1.7 mm 0 m/s 649 mmHg 94%
    18:00 +20°C° 1.7 mm 0 m/s 649 mmHg 95%
    19:00 +19°C° 1.7 mm 0 m/s 649 mmHg 96%
    20:00 +19°C° 2.5 mm 0 m/s 650 mmHg 97%
    21:00 +19°C° 2.5 mm 0 m/s 650 mmHg 97%
    22:00 +18°C° 2.5 mm 0 m/s 650 mmHg 97%
    23:00 +18°C° 0.7 mm 0 m/s 650 mmHg 97%
    Voir plus